GW5135 Weather Reports


Display with metric or nautical units.
time (UTC)temp
F
wind
direction
speed
MPH
gust
MPH
rain 1hr
in
rain 24hr
in
rain mn
in
humidity
%
barometer
mb
20260906130457 71 98 0.0 0.0 0.00 0.00 0.00 99 1017.4
20260906125952 70 98 0.0 0.0 0.00 0.00 0.00 99 1017.4
20260906125450 71 98 0.0 0.0 0.00 0.00 0.00 99 1017.2
20260906124949 70 98 0.0 0.0 0.00 0.00 0.00 99 1017.3
20260906124444 70 98 0.0 0.0 0.00 0.00 0.00 99 1017.2
20260906123939 70 98 0.0 0.0 0.00 0.00 0.00 99 1017.2
20260906123439 70 98 0.0 0.0 0.00 0.00 0.00 99 1017.4
20260906122933 70 98 0.0 0.0 0.00 0.00 0.00 99 1017.3
20260906122428 70 98 0.0 0.0 0.00 0.00 0.00 99 1017.2
20260906121925 69 98 0.0 0.0 0.00 0.00 0.00 99 1017.0
20260906121421 69 99 0.0 0.0 0.00 0.00 0.00 99 1017.1
20260906120917 69 99 0.0 0.0 0.00 0.00 0.00 99 1017.0
20260906120412 69 99 0.0 0.0 0.00 0.00 0.00 99 1017.0
20260906115908 69 99 0.0 0.0 0.00 0.00 0.00 99 1016.9
20260906115404 69 99 0.0 0.0 0.00 0.00 0.00 99 1016.8
20260906114903 69 102 0.0 0.0 0.00 0.00 0.00 99 1016.9
20260906114358 69 102 0.0 0.0 0.00 0.00 0.00 99 1016.8
20260906113853 69 106 0.0 0.0 0.00 0.00 0.00 99 1016.6
20260906113351 69 106 0.0 0.0 0.00 0.00 0.00 99 1016.6
20260906112847 69 102 0.0 0.0 0.00 0.00 0.00 99 1016.5
20260906112343 69 102 0.0 0.0 0.00 0.00 0.00 99 1016.2
20260906111844 69 102 0.0 0.0 0.00 0.00 0.00 99 1016.3
20260906111343 69 102 0.0 0.0 0.00 0.00 0.00 99 1016.3
20260906110838 69 102 0.0 0.0 0.00 0.00 0.00 99 1016.0
20260906110334 69 102 0.0 0.0 0.00 0.00 0.00 99 1016.1
20260906105833 69 102 0.0 0.0 0.00 0.00 0.00 99 1015.8
20260906105329 69 106 0.0 0.0 0.00 0.00 0.00 99 1016.0
20260906104824 69 101 0.0 0.0 0.00 0.00 0.00 99 1015.8
20260906104323 69 101 0.0 0.0 0.00 0.00 0.00 99 1015.8
20260906103821 69 137 0.0 0.0 0.00 0.00 0.00 99 1016.1
20260906103320 69 122 0.0 1.0 0.00 0.00 0.00 99 1015.5
20260906102816 69 108 0.0 1.0 0.00 0.00 0.00 99 1015.6
20260906102315 69 143 0.0 0.0 0.00 0.00 0.00 99 1015.7
20260906101811 69 197 0.0 0.0 0.00 0.00 0.00 99 1015.5
20260906101306 69 198 0.0 0.0 0.00 0.00 0.00 99 1015.8
20260906100801 69 154 0.0 0.0 0.00 0.00 0.00 99 1015.6
20260906100300 69 149 0.0 0.0 0.00 0.00 0.00 99 1015.7
20260906095756 69 145 0.0 0.0 0.00 0.00 0.00 99 1015.6
20260906095251 69 145 0.0 0.0 0.00 0.00 0.00 99 1015.6
20260906094750 69 145 0.0 0.0 0.00 0.00 0.00 99 1015.4
20260906094245 69 144 0.0 1.0 0.00 0.00 0.00 99 1015.5
20260906093741 69 126 0.0 0.0 0.00 0.00 0.00 99 1015.6
20260906093237 69 126 0.0 0.0 0.00 0.00 0.00 99 1015.6
20260906092732 69 126 0.0 0.0 0.00 0.00 0.00 99 1015.6
20260906092232 69 126 0.0 0.0 0.00 0.00 0.00 99 1015.7
20260906091728 69 126 0.0 0.0 0.00 0.00 0.00 99 1015.8
20260906091224 69 127 0.0 0.0 0.00 0.00 0.00 99 1015.7
20260906090720 69 160 1.0 1.0 0.00 0.00 0.00 99 1015.5
20260906090219 69 151 0.0 1.0 0.00 0.00 0.00 99 1015.7
20260906085718 69 185 0.0 1.0 0.00 0.00 0.00 99 1015.7
20260906085217 69 230 0.0 1.0 0.00 0.00 0.00 99 1015.8
20260906084713 69 199 1.0 2.0 0.00 0.00 0.00 99 1015.8
20260906084212 69 212 0.0 0.0 0.00 0.00 0.00 99 1015.6
20260906083708 69 150 0.0 1.0 0.00 0.00 0.00 99 1015.3
20260906083203 69 62 0.0 0.0 0.00 0.00 0.00 99 1015.5
20260906082657 69 62 0.0 0.0 0.00 0.00 0.00 99 1015.5
20260906082153 69 65 0.0 1.0 0.00 0.00 0.00 99 1015.4
20260906081649 69 75 0.0 0.0 0.00 0.00 0.00 99 1015.5
20260906081144 69 74 0.0 0.0 0.00 0.00 0.00 99 1015.4
20260906080640 69 74 0.0 0.0 0.00 0.00 0.00 99 1015.4
20260906080136 69 74 0.0 0.0 0.00 0.00 0.00 99 1015.2
20260906075636 69 97 0.0 0.0 0.00 0.00 0.00 99 1015.2
20260906075130 69 94 0.0 0.0 0.00 0.00 0.00 99 1015.0
20260906074626 69 95 0.0 0.0 0.00 0.00 0.00 99 1015.3
20260906074125 69 101 0.0 0.0 0.00 0.00 0.00 99 1015.2
20260906073620 69 99 0.0 0.0 0.00 0.00 0.00 99 1015.2
20260906073115 69 99 0.0 0.0 0.00 0.00 0.00 99 1015.1
20260906072610 69 88 0.0 0.0 0.00 0.00 0.00 99 1015.2
20260906072106 69 78 0.0 0.0 0.00 0.00 0.00 99 1015.3
20260906071602 69 78 0.0 0.0 0.00 0.00 0.00 99 1015.1
20260906071056 69 79 0.0 0.0 0.00 0.00 0.00 99 1015.3
20260906070553 69 67 0.0 0.0 0.00 0.00 0.00 99 1015.4
20260906070049 69 66 0.0 0.0 0.00 0.00 0.00 99 1015.5
20260906065548 69 67 0.0 0.0 0.00 0.00 0.00 99 1015.5
20260906065044 69 67 0.0 0.0 0.00 0.00 0.00 99 1015.7
20260906064539 69 67 0.0 0.0 0.00 0.00 0.00 99 1015.7
20260906064034 69 67 0.0 0.0 0.00 0.00 0.00 99 1015.8
20260906063530 69 67 0.0 0.0 0.00 0.00 0.00 99 1016.0
20260906063026 69 70 0.0 0.0 0.00 0.00 0.00 99 1016.0
20260906062521 69 70 0.0 0.0 0.00 0.00 0.00 99 1015.7
20260906062015 69 72 0.0 1.0 0.00 0.00 0.00 99 1015.7
20260906061512 69 52 0.0 0.0 0.00 0.00 0.00 99 1015.6
20260906061011 69 57 0.0 0.0 0.00 0.00 0.00 99 1015.5
20260906060508 69 346 0.0 0.0 0.00 0.00 0.00 99 1015.6
20260906060004 69 346 0.0 0.0 0.00 0.00 0.00 99 1015.5
20260906055500 69 346 0.0 0.0 0.00 0.00 0.00 99 1015.5
20260906054955 69 3 0.0 0.0 0.00 0.00 0.00 99 1015.5
20260906054454 69 4 0.0 0.0 0.00 0.00 0.00 99 1015.5
20260906053950 69 5 0.0 0.0 0.00 0.00 0.00 99 1015.3
20260906053446 69 5 0.0 0.0 0.00 0.00 0.00 99 1015.3
20260906052942 69 5 0.0 0.0 0.00 0.00 0.00 99 1015.3
20260906052437 69 5 0.0 0.0 0.00 0.00 0.00 99 1015.4
20260906051934 69 5 0.0 0.0 0.00 0.00 0.00 99 1015.4
20260906051429 69 5 0.0 0.0 0.00 0.00 0.00 99 1015.4
20260906050925 69 5 0.0 0.0 0.00 0.00 0.00 99 1015.4
20260906050425 69 5 0.0 1.0 0.00 0.00 0.00 99 1015.4
20260906045924 69 54 0.0 0.0 0.00 0.00 0.00 99 1015.3
20260906045423 69 110 0.0 0.0 0.00 0.00 0.00 99 1015.5
20260906044920 69 118 0.0 0.0 0.00 0.00 0.00 99 1015.2
20260906044419 69 118 0.0 0.0 0.00 0.00 0.00 99 1015.6
20260906043915 70 118 0.0 0.0 0.00 0.00 0.00 99 1015.4
20260906043411 70 114 0.0 0.0 0.00 0.00 0.00 99 1015.4
20260906042906 70 114 0.0 0.0 0.00 0.00 0.00 99 1015.3
20260906042405 70 116 0.0 0.0 0.00 0.00 0.00 99 1015.6
20260906041900 70 117 0.0 0.0 0.00 0.00 0.00 99 1015.6
20260906041357 70 117 0.0 0.0 0.00 0.00 0.00 99 1015.6
20260906040856 70 122 0.0 0.0 0.00 0.00 0.00 99 1015.4
20260906040352 70 131 0.0 0.0 0.00 1.13 1.13 99 1015.6
20260906035847 70 126 0.0 0.0 0.00 1.13 1.13 99 1015.6
20260906035342 70 142 0.0 0.0 0.00 1.13 1.13 99 1015.8
20260906034837 70 142 0.0 0.0 0.00 1.13 1.13 99 1016.0
20260906034332 71 127 0.0 0.0 0.00 1.13 1.13 99 1016.0
20260906033828 70 123 0.0 0.0 0.00 1.13 1.13 99 1015.8
20260906033327 70 123 0.0 0.0 0.00 1.13 1.13 99 1016.0
20260906032824 71 123 0.0 0.0 0.00 1.13 1.13 99 1016.0
20260906032320 71 204 0.0 0.0 0.00 1.13 1.13 99 1016.0
20260906031814 71 204 0.0 1.0 0.00 1.13 1.13 99 1016.2
20260906031310 70 320 0.0 0.0 0.00 1.13 1.13 99 1016.2
20260906030810 71 327 0.0 0.0 0.00 1.13 1.13 99 1016.0
20260906030305 71 327 0.0 0.0 0.00 1.13 1.13 99 1016.2
20260906025805 71 327 0.0 0.0 0.00 1.13 1.13 99 1016.1
20260906025259 71 327 0.0 0.0 0.00 1.13 1.13 99 1016.2
20260906024758 71 327 0.0 0.0 0.00 1.13 1.13 99 1016.3
20260906024257 71 327 0.0 0.0 0.00 1.13 1.13 99 1016.0
20260906023753 71 327 0.0 0.0 0.00 1.13 1.13 99 1016.0
20260906023248 71 327 0.0 0.0 0.00 1.13 1.13 99 1016.2
20260906022744 71 327 0.0 0.0 0.00 1.13 1.13 99 1015.6
20260906022239 71 327 0.0 0.0 0.00 1.13 1.13 99 1015.7
20260906021735 71 327 0.0 0.0 0.00 1.13 1.13 99 1015.7
20260906021233 71 327 1.0 1.0 0.00 1.13 1.13 99 1015.8
20260906020728 71 315 0.0 0.0 0.05 1.13 1.13 99 1015.8
20260906020223 71 318 0.0 0.0 0.05 1.13 1.13 99 1015.8
20260906015723 71 316 0.0 0.0 0.00 1.12 1.12 99 1015.8
20260906015221 71 319 1.0 1.0 0.00 1.12 1.12 99 1016.1
20260906014716 72 353 0.0 0.0 0.00 1.12 1.12 99 1016.0
20260906014212 72 353 0.0 1.0 0.07 1.12 1.12 99 1016.0
20260906013708 72 326 0.0 1.0 0.54 1.12 1.12 98 1015.8
20260906013208 73 199 1.0 2.0 0.47 1.11 1.11 96 1016.0
20260906012703 72 124 2.0 2.0 0.00 1.03 1.03 97 1016.0
20260906012157 72 271 1.0 2.0 0.00 1.03 1.03 99 1016.0
20260906011653 71 334 0.0 0.0 0.00 1.03 1.03 99 1015.6
20260906011148 71 196 0.0 0.0 0.00 1.03 1.03 99 1015.1
20260906010644 71 196 0.0 0.0 0.00 1.03 1.03 99 1015.0
20260906010140 71 198 0.0 0.0 0.00 1.03 1.03 99 1015.1
20260906005639 71 198 0.0 0.0 0.00 1.03 1.03 99 1015.0
20260906005138 71 198 0.0 0.0 0.00 1.03 1.03 99 1015.0
20260906004637 71 198 0.0 0.0 0.00 1.03 1.03 99 1014.6
20260906004132 71 198 0.0 0.0 0.00 1.03 1.03 99 1014.6
20260906003627 71 202 0.0 0.0 0.00 1.03 1.03 99 1014.6
20260906003123 71 214 0.0 0.0 0.00 1.03 1.03 99 1014.5
20260906002618 72 214 0.0 0.0 0.00 1.03 1.03 99 1014.7
20260906002113 72 214 0.0 0.0 0.00 1.03 1.03 99 1014.7
20260906001608 72 214 0.0 0.0 0.00 1.03 1.03 98 1014.6
20260906001103 72 228 0.0 0.0 0.00 1.03 1.03 98 1014.7
20260906000559 72 228 0.0 0.0 0.00 1.03 1.03 98 1014.6
20260906000054 72 215 0.0 0.0 0.00 1.03 1.03 98 1014.4
20260905235553 72 211 0.0 0.0 0.00 1.03 1.03 97 1014.5
20260905235048 73 211 0.0 0.0 0.00 1.03 1.03 97 1014.6
20260905234543 73 211 0.0 0.0 0.00 1.03 1.03 97 1014.5
20260905234038 73 211 0.0 0.0 0.00 1.03 1.03 96 1014.6
20260905233533 74 213 0.0 0.0 0.00 1.03 1.03 95 1014.5
20260905233032 74 216 0.0 0.0 0.00 1.03 1.03 94 1014.4
20260905232528 74 216 0.0 0.0 0.00 1.03 1.03 94 1014.8
20260905232024 74 216 0.0 0.0 0.00 1.03 1.03 94 1014.6
20260905231518 75 229 0.0 0.0 0.00 1.03 1.03 92 1014.5
20260905231015 75 229 0.0 0.0 0.00 1.03 1.03 91 1014.7
20260905230514 76 229 0.0 1.0 0.00 1.03 1.03 91 1014.6
20260905230012 77 259 0.0 0.0 0.00 1.03 1.03 88 1014.6
20260905225508 77 258 1.0 1.0 0.00 1.03 1.03 86 1014.7
20260905225002 78 232 0.0 0.0 0.00 1.03 1.03 88 1014.4
20260905224457 78 261 0.0 1.0 0.00 1.03 1.03 84 1014.6
20260905223957 78 255 0.0 0.0 0.00 1.03 1.03 82 1014.8
20260905223455 78 233 0.0 0.0 0.00 1.03 1.03 84 1014.8
20260905222950 78 229 0.0 0.0 0.00 1.03 1.03 84 1014.7
20260905222449 78 246 0.0 1.0 0.00 1.03 1.03 83 1014.8
20260905221945 78 225 0.0 0.0 0.00 1.03 1.03 86 1014.6
20260905221441 78 226 0.0 0.0 0.00 1.03 1.03 85 1014.7
20260905220937 79 232 0.0 1.0 0.00 1.03 1.03 82 1014.7
20260905220433 78 257 0.0 1.0 0.00 1.03 1.03 83 1014.5
20260905215932 79 259 0.0 0.0 0.00 1.03 1.03 84 1014.7
20260905215427 79 259 0.0 1.0 0.00 1.03 1.03 82 1014.5
20260905214924 79 258 0.0 0.0 0.00 1.03 1.03 84 1014.4
20260905214420 80 200 1.0 1.0 0.00 1.03 1.03 82 1014.3
20260905213919 80 206 1.0 2.0 0.00 1.03 1.03 80 1014.3
20260905213416 81 252 0.0 1.0 0.00 1.03 1.03 78 1014.4
20260905212911 81 186 0.0 0.0 0.00 1.03 1.03 78 1014.2
20260905212406 81 257 0.0 1.0 0.00 1.03 1.03 76 1014.4
20260905211859 81 308 0.0 1.0 0.00 1.03 1.03 78 1014.2
20260905211355 81 275 1.0 2.0 0.00 1.03 1.03 78 1014.3
20260905210851 82 206 2.0 3.0 0.00 1.03 1.03 78 1014.1
20260905210350 82 227 0.0 2.0 0.00 1.03 1.03 72 1014.1
20260905205849 82 186 2.0 3.0 0.00 1.03 1.03 75 1014.0
20260905205344 82 269 1.0 1.0 0.00 1.03 1.03 72 1014.3
20260905204843 83 256 2.0 4.0 0.00 1.03 1.03 71 1014.2
20260905204340 83 248 1.0 1.0 0.00 1.03 1.03 75 1014.2
20260905203838 83 254 1.0 1.0 0.00 1.03 1.03 69 1014.2
20260905203335 82 253 1.0 1.0 0.00 1.03 1.03 71 1014.3
20260905202830 82 204 2.0 2.0 0.00 1.03 1.03 76 1014.4
20260905202325 82 258 0.0 0.0 0.00 1.03 1.03 68 1014.4
20260905201821 83 262 3.0 3.0 0.00 1.03 1.03 69 1014.2
20260905201316 83 253 2.0 2.0 0.00 1.03 1.03 73 1014.1
20260905200810 83 220 0.0 1.0 0.00 1.03 1.03 73 1014.3
20260905200307 83 261 3.0 3.0 0.00 1.03 1.03 70 1014.5
20260905195804 83 241 2.0 3.0 0.00 1.03 1.03 70 1014.5
20260905195300 83 232 0.0 2.0 0.00 1.03 1.03 70 1014.7
20260905194756 83 271 1.0 1.0 0.00 1.03 1.03 69 1014.7
20260905194254 83 260 2.0 2.0 0.00 1.03 1.03 68 1014.7
20260905193754 82 271 1.0 1.0 0.00 1.03 1.03 69 1015.0
20260905193249 83 264 2.0 4.0 0.00 1.03 1.03 67 1015.1
20260905192744 83 143 1.0 3.0 0.00 1.03 1.03 66 1015.1
20260905192241 83 158 1.0 4.0 0.00 1.03 1.03 66 1015.0
20260905191740 83 267 0.0 0.0 0.00 1.03 1.03 69 1015.1
20260905191238 85 274 1.0 2.0 0.00 1.03 1.03 66 1015.1
20260905190737 85 280 2.0 3.0 0.00 1.03 1.03 65 1015.4
20260905190236 85 187 1.0 2.0 0.00 1.03 1.03 65 1015.2
20260905185735 85 227 2.0 3.0 0.00 1.03 1.03 64 1015.4
20260905185230 85 193 1.0 2.0 0.00 1.03 1.03 64 1015.5
20260905184725 85 273 0.0 2.0 0.00 1.03 1.03 63 1015.6
20260905184224 83 198 0.0 2.0 0.00 1.03 1.03 67 1015.7
20260905183718 83 279 0.0 1.0 0.00 1.03 1.03 70 1015.7
20260905183213 84 114 1.0 2.0 0.00 1.03 1.03 65 1015.7
20260905182712 83 276 2.0 2.0 0.00 1.03 1.03 66 1015.5
20260905182212 83 268 1.0 2.0 0.00 1.03 1.03 70 1015.7
20260905181708 84 269 2.0 3.0 0.00 1.03 1.03 67 1015.8
20260905181206 84 266 2.0 3.0 0.00 1.03 1.03 67 1015.6
20260905180701 84 159 0.0 3.0 0.00 1.03 1.03 67 1015.4
20260905180157 84 195 2.0 2.0 0.00 1.03 1.03 68 1015.5
20260905175655 83 162 1.0 3.0 0.00 1.03 1.03 68 1015.7
20260905175151 82 243 1.0 2.0 0.00 1.03 1.03 74 1015.7
20260905174647 82 123 1.0 3.0 0.00 1.03 1.03 69 1015.8
20260905174142 83 207 1.0 2.0 0.00 1.03 1.03 69 1016.1
20260905173638 82 242 0.0 1.0 0.00 1.03 1.03 67 1016.2
20260905173133 83 143 3.0 4.0 0.00 1.03 1.03 72 1016.3
20260905172632 82 191 1.0 1.0 0.00 1.03 1.03 74 1016.6
20260905172127 83 337 2.0 2.0 0.00 1.03 1.03 71 1016.4
20260905171623 82 163 0.0 1.0 0.00 1.03 1.03 72 1016.7
20260905171119 81 254 1.0 3.0 0.00 1.03 1.03 76 1016.7
20260905170615 82 186 3.0 3.0 0.00 1.03 1.03 73 1016.7
20260905170111 81 149 0.0 2.0 0.00 1.03 1.03 77 1016.9
20260905165611 80 142 2.0 3.0 0.00 1.03 1.03 80 1016.8
20260905165107 77 239 1.0 2.0 0.00 1.03 1.03 85 1016.8
20260905164601 78 265 0.0 2.0 0.00 1.03 1.03 83 1017.0
20260905164055 79 203 2.0 3.0 0.00 1.03 1.03 81 1016.9
20260905163552 79 172 4.0 6.0 0.00 1.03 1.03 82 1017.1
20260905163048 78 191 3.0 6.0 0.00 1.03 1.03 86 1017.2
20260905162544 78 214 3.0 4.0 0.00 1.03 1.03 86 1017.1
20260905162043 77 190 1.0 2.0 0.00 1.03 1.03 87 1017.2
20260905161543 76 173 2.0 3.0 0.00 1.03 1.03 88 1017.3
20260905161041 75 289 1.0 1.0 0.00 1.03 1.03 92 1017.4
20260905160539 76 250 2.0 3.0 0.00 1.03 1.03 91 1017.4
20260905160034 77 193 1.0 1.0 0.00 1.03 1.03 88 1017.6
20260905155534 78 251 1.0 2.0 0.00 1.03 1.03 88 1017.3
20260905155032 79 260 1.0 3.0 0.00 1.03 1.03 87 1017.2
20260905154528 77 358 0.0 1.0 0.00 1.03 1.03 88 1017.1
20260905154023 77 254 2.0 4.0 0.00 1.03 1.03 89 1017.3
20260905153519 75 201 3.0 4.0 0.00 1.03 1.03 91 1017.2
20260905153019 76 112 1.0 3.0 0.00 1.03 1.03 93 1017.4
20260905152514 74 279 1.0 3.0 0.00 1.03 1.03 95 1017.1
20260905152009 74 161 1.0 3.0 0.00 1.03 1.03 98 1017.6
20260905151504 73 261 1.0 2.0 0.00 1.03 1.03 99 1017.2
20260905150959 73 261 0.0 1.0 0.00 1.03 1.03 99 1017.4
20260905150454 72 261 1.0 1.0 0.00 1.03 1.03 99 1017.1
20260905145950 73 274 2.0 2.0 0.00 1.03 1.03 99 1017.0
20260905145445 72 3 0.0 1.0 0.00 1.03 1.03 99 1017.1
20260905144944 71 337 3.0 4.0 0.00 1.03 1.03 99 1016.6
20260905144440 71 91 0.0 1.0 0.00 1.03 1.03 99 1016.2
20260905143939 71 311 2.0 3.0 0.00 1.03 1.03 99 1015.6
20260905143438 71 122 1.0 2.0 0.00 1.03 1.03 99 1015.4
20260905142932 71 219 0.0 1.0 0.00 1.03 1.03 99 1015.2
20260905142432 70 152 0.0 1.0 0.07 1.03 1.03 99 1015.3
20260905141927 70 151 0.0 1.0 0.07 1.03 1.03 99 1015.5
20260905141422 70 159 0.0 3.0 0.00 1.02 1.02 99 1015.8
20260905140919 70 158 0.0 1.0 0.00 1.02 1.02 99 1016.1
20260905140414 70 226 1.0 2.0 0.00 1.02 1.02 99 1016.5
20260905135912 70 112 1.0 1.0 0.00 1.02 1.02 99 1016.5
20260905135408 69 136 0.0 0.0 0.00 1.02 1.02 99 1016.7
20260905134903 69 127 0.0 1.0 0.00 1.02 1.02 99 1016.7
20260905134401 69 154 1.0 1.0 0.00 1.02 1.02 99 1017.0
20260905133856 69 139 0.0 1.0 0.00 1.02 1.02 99 1016.8
20260905133351 69 135 0.0 0.0 0.00 1.02 1.02 99 1017.3
20260905132850 69 135 0.0 0.0 0.00 1.02 1.02 99 1017.4
20260905132346 69 136 0.0 0.0 0.05 1.02 1.02 99 1017.3
20260905131840 69 134 0.0 1.0 0.00 1.01 1.01 99 1017.2
20260905131336 69 134 0.0 0.0 0.00 1.01 1.01 99 1017.4
20260905130831 69 98 0.0 0.0 0.07 1.01 1.01 99 1017.6